Radiation Dose at Monitoring Post of Fukushima Daini Nuclear Power Station
Date,Time,MP-1(microSv/h),MP-2(microSv/h),MP-3(microSv/h),MP-4(microSv/h),MP-5(microSv/h),MP-6(microSv/h),MP-7(microSv/h),Wind Direction,Wind Velocity(m/s),Rain
2022/12/17,00:00,0.152,0.137,0.215,0.212,0.213,0.120,0.077,north,2.4,No
2022/12/17,00:10,0.153,0.138,0.217,0.211,0.212,0.121,0.077,north-northwest,2.2,No
2022/12/17,00:20,0.153,0.138,0.217,0.211,0.212,0.122,0.077,north,3.2,No
2022/12/17,00:30,0.153,0.137,0.216,0.212,0.212,0.121,0.077,north,3.4,No
2022/12/17,00:40,0.153,0.138,0.215,0.211,0.212,0.122,0.077,north,4.4,No
2022/12/17,00:50,0.154,0.138,0.216,0.211,0.213,0.121,0.077,north,3.4,No
2022/12/17,01:00,0.153,0.138,0.215,0.211,0.212,0.121,0.076,north,3.9,No
2022/12/17,01:10,0.153,0.138,0.216,0.211,0.213,0.121,0.077,north-northwest,4.1,No
2022/12/17,01:20,0.153,0.138,0.216,0.212,0.213,0.121,0.077,north-northwest,4.7,No
2022/12/17,01:30,0.154,0.138,0.215,0.211,0.213,0.121,0.077,north-northwest,4.7,No
2022/12/17,01:40,0.153,0.138,0.215,0.211,0.213,0.121,0.077,north-northwest,4.8,Yes
2022/12/17,01:50,0.153,0.138,0.215,0.211,0.212,0.121,0.077,north-northwest,3.4,No
2022/12/17,02:00,0.153,0.138,0.214,0.212,0.213,0.122,0.077,north-northwest,3.3,No
2022/12/17,02:10,0.153,0.138,0.215,0.213,0.213,0.121,0.077,north-northwest,3.6,No
2022/12/17,02:20,0.154,0.137,0.215,0.211,0.211,0.121,0.077,north,3.0,No
2022/12/17,02:30,0.153,0.137,0.214,0.211,0.212,0.122,0.077,north-northwest,3.3,No
2022/12/17,02:40,0.153,0.138,0.216,0.212,0.213,0.122,0.077,north-northwest,3.7,No
2022/12/17,02:50,0.153,0.139,0.216,0.211,0.212,0.121,0.077,north-northwest,3.5,No
2022/12/17,03:00,0.153,0.138,0.217,0.212,0.213,0.122,0.078,north-northwest,3.6,No
2022/12/17,03:10,0.154,0.137,0.215,0.211,0.213,0.122,0.078,north-northwest,3.8,No
2022/12/17,03:20,0.153,0.138,0.215,0.212,0.213,0.121,0.077,north-northwest,4.0,No
2022/12/17,03:30,0.154,0.137,0.216,0.213,0.213,0.122,0.077,northwest,4.2,No
2022/12/17,03:40,0.153,0.138,0.216,0.213,0.212,0.122,0.078,north-northwest,4.3,No
2022/12/17,03:50,0.154,0.138,0.216,0.211,0.213,0.122,0.077,north-northwest,5.4,No
2022/12/17,04:00,0.154,0.137,0.216,0.212,0.212,0.121,0.078,north-northwest,6.3,No
2022/12/17,04:10,0.153,0.138,0.215,0.212,0.212,0.122,0.078,northwest,6.0,No
2022/12/17,04:20,0.152,0.139,0.217,0.211,0.213,0.122,0.078,north-northwest,4.8,No
2022/12/17,04:30,0.154,0.138,0.215,0.212,0.213,0.121,0.078,north-northwest,4.5,No
2022/12/17,04:40,0.153,0.138,0.215,0.212,0.213,0.122,0.077,north-northwest,4.7,No
2022/12/17,04:50,0.153,0.138,0.216,0.211,0.212,0.121,0.077,north-northwest,5.1,No
2022/12/17,05:00,0.153,0.138,0.216,0.212,0.212,0.122,0.078,north-northwest,5.3,No
2022/12/17,05:10,0.154,0.138,0.215,0.213,0.214,0.122,0.077,north-northwest,4.6,No
2022/12/17,05:20,0.154,0.138,0.216,0.211,0.213,0.122,0.077,north,3.6,No
2022/12/17,05:30,0.153,0.138,0.216,0.212,0.212,0.121,0.077,north-northwest,3.7,No
2022/12/17,05:40,0.154,0.138,0.217,0.211,0.214,0.121,0.078,north-northwest,4.1,No
2022/12/17,05:50,0.153,0.138,0.216,0.212,0.212,0.122,0.077,north-northwest,5.2,No
2022/12/17,06:00,0.154,0.139,0.215,0.212,0.213,0.122,0.078,north-northwest,5.4,No
2022/12/17,06:10,0.154,0.139,0.216,0.212,0.214,0.121,0.077,north-northwest,5.9,No
2022/12/17,06:20,0.154,0.138,0.216,0.211,0.212,0.122,0.078,north-northwest,5.5,No
2022/12/17,06:30,0.154,0.138,0.215,0.212,0.212,0.121,0.077,north-northwest,4.3,No
2022/12/17,06:40,0.154,0.138,0.216,0.211,0.212,0.121,0.078,north-northwest,6.0,No
2022/12/17,06:50,0.154,0.138,0.216,0.212,0.211,0.122,0.078,north-northwest,4.9,No
2022/12/17,07:00,0.154,0.138,0.215,0.213,0.213,0.122,0.078,north-northwest,2.0,No
2022/12/17,07:10,0.154,0.138,0.216,0.211,0.213,0.121,0.077,north-northwest,2.8,No
2022/12/17,07:20,0.153,0.137,0.216,0.212,0.213,0.122,0.077,north-northwest,3.8,No
2022/12/17,07:30,0.154,0.138,0.216,0.213,0.213,0.122,0.078,northwest,3.2,No
2022/12/17,07:40,0.154,0.138,0.216,0.213,0.213,0.121,0.078,northwest,2.4,No
2022/12/17,07:50,0.154,0.139,0.216,0.212,0.213,0.122,0.077,north-northwest,3.6,No
2022/12/17,08:00,0.155,0.139,0.215,0.210,0.213,0.122,0.078,northwest,3.2,No
2022/12/17,08:10,0.153,0.139,0.215,0.212,0.214,0.121,0.078,north-northwest,2.3,No
2022/12/17,08:20,0.155,0.138,0.215,0.211,0.212,0.121,0.078,west-northwest,2.4,No
2022/12/17,08:30,0.154,0.138,0.215,0.212,0.213,0.121,0.077,northwest,2.4,No
2022/12/17,08:40,0.153,0.138,0.215,0.211,0.213,0.122,0.077,northwest,3.2,No
2022/12/17,08:50,0.153,0.138,0.216,0.211,0.213,0.121,0.078,north-northwest,4.1,No
2022/12/17,09:00,0.155,0.138,0.215,0.211,0.213,0.121,0.077,north-northwest,4.2,No
2022/12/17,09:10,0.154,0.138,0.216,0.212,0.212,0.122,0.078,north,3.4,No
2022/12/17,09:20,0.154,0.139,0.215,0.212,0.213,0.121,0.077,northwest,2.5,No
2022/12/17,09:30,0.154,0.139,0.216,0.212,0.214,0.121,0.078,northwest,3.0,No
2022/12/17,09:40,0.154,0.138,0.216,0.212,0.212,0.121,0.078,north-northwest,3.4,No
2022/12/17,09:50,0.154,0.138,0.216,0.212,0.213,0.122,0.078,northwest,3.9,No
2022/12/17,10:00,0.153,0.139,0.216,0.211,0.213,0.122,0.078,northwest,4.4,No
2022/12/17,10:10,0.154,0.138,0.216,0.212,0.212,0.122,0.078,northwest,4.3,No
2022/12/17,10:20,0.154,0.138,0.217,0.213,0.211,0.122,0.078,northwest,4.1,No
2022/12/17,10:30,0.154,0.138,0.216,0.212,0.213,0.121,0.077,west-northwest,4.5,Yes
2022/12/17,10:40,0.154,0.138,0.215,0.211,0.211,0.122,0.077,west-northwest,4.7,No
2022/12/17,10:50,0.154,0.138,0.216,0.212,0.211,0.121,0.078,west-northwest,4.6,No
2022/12/17,11:00,0.154,0.137,0.215,0.212,0.212,0.121,0.076,northwest,3.9,No
2022/12/17,11:10,0.153,0.138,0.216,0.211,0.211,0.122,0.077,west-northwest,3.5,No
2022/12/17,11:20,0.154,0.138,0.215,0.212,0.211,0.121,0.077,west-northwest,2.9,No
2022/12/17,11:30,0.154,0.137,0.215,0.211,0.213,0.122,0.077,west,2.0,Yes
2022/12/17,11:40,0.154,0.139,0.216,0.212,0.212,0.122,0.078,west-northwest,1.5,Yes
2022/12/17,11:50,0.155,0.139,0.216,0.213,0.213,0.123,0.078,west-northwest,1.7,Yes
2022/12/17,12:00,0.153,0.138,0.216,0.213,0.213,0.122,0.078,west-northwest,1.8,No
2022/12/17,12:10,0.154,0.138,0.216,0.212,0.213,0.123,0.078,west-northwest,1.2,No
2022/12/17,12:20,0.154,0.139,0.217,0.212,0.212,0.123,0.078,west,1.4,No
2022/12/17,12:30,0.153,0.139,0.216,0.213,0.212,0.122,0.077,west-northwest,1.3,No
2022/12/17,12:40,0.154,0.137,0.216,0.212,0.213,0.122,0.078,northwest,1.7,No
2022/12/17,12:50,0.154,0.138,0.216,0.212,0.214,0.122,0.078,northwest,2.0,No
2022/12/17,13:00,0.154,0.138,0.215,0.213,0.212,0.123,0.078,northwest,2.2,No
2022/12/17,13:10,0.154,0.139,0.217,0.213,0.212,0.122,0.077,northwest,1.3,No
2022/12/17,13:20,0.153,0.138,0.216,0.212,0.212,0.122,0.077,west-northwest,1.7,No
2022/12/17,13:30,0.154,0.137,0.216,0.212,0.213,0.122,0.077,northwest,1.6,No
2022/12/17,13:40,0.153,0.138,0.215,0.212,0.213,0.121,0.077,west-northwest,2.2,Yes
2022/12/17,13:50,0.154,0.138,0.215,0.213,0.212,0.122,0.078,west-northwest,0.7,Yes
2022/12/17,14:00,0.155,0.139,0.216,0.212,0.213,0.122,0.078,west-northwest,2.1,Yes
2022/12/17,14:10,0.154,0.139,0.215,0.213,0.214,0.123,0.078,south-southwest,3.5,Yes
2022/12/17,14:20,0.155,0.139,0.217,0.214,0.214,0.124,0.080,west-northwest,1.6,Yes
2022/12/17,14:30,0.156,0.141,0.217,0.214,0.215,0.125,0.080,north-northwest,2.7,Yes
2022/12/17,14:40,0.156,0.141,0.218,0.213,0.215,0.125,0.080,west-northwest,1.7,Yes
2022/12/17,14:50,0.156,0.141,0.219,0.214,0.215,0.124,0.081,northwest,1.9,Yes
2022/12/17,15:00,0.156,0.140,0.219,0.215,0.214,0.124,0.080,northwest,1.4,Yes
2022/12/17,15:10,0.156,0.141,0.218,0.215,0.215,0.125,0.080,northwest,2.5,Yes
2022/12/17,15:20,0.156,0.140,0.218,0.215,0.215,0.125,0.081,west-northwest,2.7,Yes
2022/12/17,15:30,0.155,0.141,0.218,0.213,0.214,0.124,0.080,northwest,1.8,Yes
2022/12/17,15:40,0.155,0.141,0.218,0.215,0.214,0.124,0.079,northwest,2.4,Yes
2022/12/17,15:50,0.155,0.141,0.218,0.213,0.215,0.124,0.080,northwest,3.3,No
2022/12/17,16:00,0.155,0.140,0.218,0.213,0.214,0.124,0.079,northwest,4.0,No
2022/12/17,16:10,0.155,0.140,0.216,0.212,0.212,0.123,0.079,northwest,4.0,No
2022/12/17,16:20,0.156,0.140,0.217,0.213,0.213,0.123,0.078,west-northwest,3.8,No
2022/12/17,16:30,0.155,0.139,0.214,0.214,0.214,0.124,0.078,northwest,4.7,No
2022/12/17,16:40,0.154,0.139,0.216,0.212,0.212,0.122,0.078,northwest,3.9,No
2022/12/17,16:50,0.154,0.139,0.216,0.211,0.213,0.122,0.078,west-northwest,3.8,No
2022/12/17,17:00,0.154,0.138,0.215,0.211,0.212,0.123,0.078,northwest,4.3,No
2022/12/17,17:10,0.154,0.137,0.214,0.212,0.212,0.121,0.078,northwest,3.5,No
2022/12/17,17:20,0.153,0.138,0.215,0.211,0.212,0.122,0.078,northwest,3.2,No
2022/12/17,17:30,0.153,0.139,0.214,0.211,0.211,0.122,0.077,west-northwest,3.0,No
2022/12/17,17:40,0.154,0.138,0.215,0.212,0.210,0.122,0.076,northwest,2.3,No
2022/12/17,17:50,0.154,0.137,0.216,0.212,0.212,0.122,0.078,west-northwest,1.7,No
2022/12/17,18:00,0.153,0.138,0.215,0.211,0.211,0.122,0.078,west-northwest,1.8,No
2022/12/17,18:10,0.154,0.138,0.215,0.210,0.211,0.121,0.077,west-northwest,1.0,No
2022/12/17,18:20,0.154,0.137,0.214,0.211,0.212,0.122,0.077,west-northwest,0.6,No
2022/12/17,18:30,0.154,0.138,0.214,0.211,0.211,0.122,0.078,west-northwest,0.7,No
2022/12/17,18:40,0.154,0.139,0.216,0.211,0.213,0.121,0.078,-,CALM,No
2022/12/17,18:50,0.155,0.139,0.214,0.211,0.211,0.122,0.078,west-northwest,1.2,No
2022/12/17,19:00,0.153,0.137,0.215,0.211,0.212,0.122,0.077,northwest,1.2,Yes
2022/12/17,19:10,0.153,0.139,0.214,0.212,0.213,0.121,0.077,north-northeast,1.7,No
2022/12/17,19:20,0.154,0.138,0.215,0.212,0.213,0.122,0.077,north-northwest,1.8,No
2022/12/17,19:30,0.154,0.139,0.216,0.212,0.213,0.122,0.078,north-northwest,2.0,No
2022/12/17,19:40,0.154,0.138,0.216,0.212,0.213,0.122,0.079,north-northwest,2.4,No
2022/12/17,19:50,0.153,0.139,0.215,0.212,0.212,0.122,0.077,north-northwest,1.7,No
2022/12/17,20:00,0.154,0.139,0.216,0.212,0.211,0.122,0.077,northwest,2.0,No
2022/12/17,20:10,0.154,0.139,0.215,0.211,0.213,0.122,0.078,northwest,1.4,No
2022/12/17,20:20,0.154,0.139,0.216,0.212,0.212,0.122,0.078,north-northwest,2.2,No
2022/12/17,20:30,0.154,0.139,0.215,0.212,0.212,0.122,0.078,north-northwest,1.7,No
2022/12/17,20:40,0.154,0.138,0.216,0.213,0.212,0.124,0.078,northwest,1.3,No
2022/12/17,20:50,0.155,0.139,0.216,0.212,0.213,0.122,0.078,north-northwest,1.6,No
2022/12/17,21:00,0.154,0.140,0.216,0.212,0.214,0.123,0.078,north,1.2,No
2022/12/17,21:10,0.155,0.139,0.216,0.213,0.213,0.123,0.079,east-northeast,1.2,Yes
2022/12/17,21:20,0.155,0.139,0.216,0.212,0.214,0.123,0.079,-,CALM,Yes
2022/12/17,21:30,0.155,0.140,0.218,0.212,0.214,0.123,0.079,-,CALM,Yes
2022/12/17,21:40,0.156,0.141,0.217,0.213,0.214,0.123,0.080,southeast,0.7,Yes
2022/12/17,21:50,0.156,0.140,0.217,0.214,0.215,0.124,0.080,-,CALM,No
2022/12/17,22:00,0.155,0.140,0.217,0.213,0.213,0.124,0.080,northwest,1.0,No
2022/12/17,22:10,0.155,0.140,0.216,0.212,0.213,0.123,0.080,west,1.9,Yes
2022/12/17,22:20,0.154,0.140,0.217,0.213,0.214,0.124,0.080,west,2.9,Yes
2022/12/17,22:30,0.157,0.140,0.216,0.214,0.214,0.125,0.080,west-northwest,3.8,Yes
2022/12/17,22:40,0.156,0.141,0.219,0.215,0.214,0.125,0.081,west,5.4,Yes
2022/12/17,22:50,0.158,0.143,0.220,0.216,0.216,0.127,0.082,west,6.0,Yes
2022/12/17,23:00,0.158,0.143,0.221,0.217,0.218,0.128,0.083,west,5.0,Yes
2022/12/17,23:10,0.158,0.143,0.220,0.217,0.217,0.128,0.083,west,5.3,Yes
2022/12/17,23:20,0.158,0.143,0.220,0.216,0.217,0.127,0.083,west,5.0,Yes
2022/12/17,23:30,0.157,0.142,0.221,0.217,0.215,0.127,0.083,west-southwest,5.1,Yes
2022/12/17,23:40,0.157,0.143,0.220,0.217,0.216,0.127,0.082,west-southwest,5.0,Yes
2022/12/17,23:50,0.157,0.142,0.220,0.216,0.216,0.127,0.083,west,4.3,Yes
